SCP
1 1 2 2 3 3 3 2 2 1 2 2 2 3 2 2 1 1 1 1 0 0 0 0 0 0 0 0 0 1 1 1 1 1 1 1 1 1
2 2 2 2 3 3 3 2 2 2 2 2 3 3 3 2 1 1 1 1 0 0 0 0 0 0 0 0 0 0 0 0 0 0 0 0 0 1
2 2 2 3 3 3 3 2 2 2 2 2 3 3 3 2 1 1 1 1 0 0 0 0 0 0 0 0 0 0 0 0 0 0 0 0 0 0
1 2 2 2 3 3 3 3 2 2 2 2 2 2 2 1 1 1 1 1 1 0 0 0 0 0 0 0 0 0 0 0 0 0 0 0 0 0
1 1 1 2 2 2 2 2 2 1 1 1 1 1 1 1 1 1 1 1 1 0 0 0 0 0 0 0 0 0 0 0 0 0 0 0 0 0
1 1 1 1 1 1 1 1 1 1 1 1 1 1 1 1 0 0 0 1 1 1 1 1 1 0 0 0 0 0 0 0 0 0 0 0 0 0
2 2 1 1 1 1 1 1 1 1 1 1 1 1 1 1 1 0 0 0 1 1 1 1 1 1 1 1 0 0 0 0 0 0 0 0 0 0
2 2 1 1 1 0 0 0 1 1 1 1 1 1 1 1 1 0 0 1 1 1 1 1 1 1 1 1 0 0 0 0 0 0 0 0 0 0
2 2 1 1 1 0 0 0 0 0 1 1 1 1 1 1 1 1 1 1 1 1 1 1 1 1 1 1 0 0 0 0 0 0 0 0 0 0
2 1 1 1 1 1 1 1 1 1 0 0 0 0 0 0 0 0 0 0 0 0 0 0 0 0 0 0 0 0 0 0 0 0 0 0 0 0
2 2 1 1 1 0 1 1 1 1 0 0 0 0 0 0 0 0 0 0 0 0 0 0 0 0 0 0 0 0 0 0 0 0 0 0 0 0
2 1 1 0 0 0 1 1 1 0 0 0 0 0 0 0 0 0 0 0 0 0 0 0 0 0 0 0 0 0 0 0 0 0 0 0 0 0
1 1 0 0 0 0 0 0 0 0 0 0 0 0 0 0 0 0 0 0 0 0 0 0 0 0 0 0 0 0 0 0 0 0 0 0 0 0
0 0 0 0 0 0 0 0 0 0 0 0 0 0 0 0 0 0 0 0 0 0 0 0 0 0 0 0 0 0 0 0 0 0 0 0 0 0
0 0 0 0 0 0 0 0 0 0 0 0 0 0 0 0 0 0 0 0 0 0 0 0 0 0 0 0 0 0 0 0 0 0 0 0 0 0
0 0 0 0 0 0 0 0 0 0 0 0 0 0 0 0 0 0 0 0 0 0 0 0 0 0 0 0 0 0 0 0 0 0 0 0 0 0
0 0 0 0 0 0 0 0 0 0 0 0 0 0 0 0 0 0 0 0 0 0 0 0 0 0 0 0 0 0 0 0 0 0 0 0 0 0
0 0 0 0 0 0 0 0 0 0 0 0 0 0 0 0 0 0 0 0 0 0 0 0 0 0 0 0 0 0 0 0 0 0 0 0 0 0
0 0 0 0 0 0 0 0 0 0 0 0 0 0 0 0 0 0 0 0 0 0 0 0 0 0 0 0 0 0 0 0 0 0 0 0 0 0
0 0 0 0 0 0 0 0 0 0 0 0 0 0 0 0 0 0 0 0 0 0 0 0 0 0 0 0 0 0 0 0 0 0 0 0 0 0
0 0 0 0 0 0 0 0 0 0 0 0 0 0 0 0 0 0 0 0 0 0 0 0 0 0 0 0 0 0 0 0 0 0 0 0 0 0
0 0 0 0 0 0 0 0 0 0 0 0 0 0 0 0 0 0 0 0 0 0 0 0 0 0 0 0 0 0 0 0 0 0 0 0 0 0
0 0 0 0 0 0 0 0 0 0 0 0 0 0 0 0 0 0 0 0 0 0 0 0 0 0 0 0 0 0 0 0 0 0 0 0 0 0
Wind_Speed
1 2 3 2 3 3 3 3 3 3 1 0 1 2 2 2 3 2 3 8 8 7 6 5 5 4 4 3 3 2 2 1 1 0 0 0 1 2
1 1 2 2 1 2 2 2 2 3 1 1 1 2 2 2 5 4 5 8 9 8 7 7 7 6 5 5 4 4 3 3 2 2 2 2 1 1
1 1 1 2 1 1 1 1 1 1 1 0 1 3 4 3 4 4 4 4 6 10 9 8 8 8 7 6 6 5 5 4 5 5 4 4 4 3
3 3 2 2 2 2 1 1 0 0 1 1 2 2 3 3 4 3 4 4 6 11 11 11 10 9 8 8 7 6 7 7 7 7 7 7 7 7
4 4 4 3 3 3 2 2 1 1 1 2 2 2 3 3 4 4 5 4 5 7 9 10 10 10 10 10 10 9 9 9 9 9 8 8 8 8
6 5 5 5 5 4 3 3 3 2 3 3 3 3 3 2 2 3 4 4 4 4 6 6 8 9 11 11 11 11 10 9 9 10 10 9 9 9
7 7 9 10 11 8 6 5 4 3 3 4 4 3 3 2 2 2 3 3 4 3 3 3 4 4 6 8 10 10 10 9 9 9 8 8 8 9
7 7 8 9 10 11 12 11 9 5 4 4 4 4 4 3 2 2 2 2 2 2 2 3 3 4 4 6 9 9 8 8 8 7 7 7 7 7
7 6 6 7 7 7 8 8 10 11 8 4 5 4 4 3 2 2 2 2 3 2 1 3 3 3 4 7 8 7 7 7 7 6 6 5 5 5
7 7 7 7 7 6 7 9 9 9 8 7 7 6 6 4 3 3 3 3 3 2 1 2 2 3 3 4 7 6 5 5 5 5 4 4 3 2
8 8 7 8 8 6 6 8 8 8 10 10 9 7 7 6 4 1 1 1 2 3 2 1 1 1 2 3 6 6 5 4 3 3 3 2 2 1
6 8 11 9 8 7 6 7 7 7 6 7 6 5 5 6 4 3 3 2 2 2 3 2 1 0 1 2 2 3 3 4 4 3 2 2 3 3
6 6 7 8 8 8 6 7 5 3 4 5 5 5 5 4 5 5 6 5 4 4 3 3 2 2 2 1 1 1 1 1 1 2 2 2 1 4
5 6 7 7 7 7 6 6 3 2 3 4 4 5 4 4 5 5 6 6 5 5 5 5 3 3 3 2 1 1 1 1 1 1 1 3 3 1
6 8 6 4 4 6 6 3 2 2 3 3 4 4 4 4 3 3 4 3 3 4 5 5 4 4 3 3 3 2 2 1 1 2 2 1 1 1
6 6 5 3 3 4 3 2 3 4 3 3 3 3 3 2 2 3 2 2 1 3 4 4 4 5 3 3 3 3 3 2 2 2 2 2 1 1
4 4 4 3 3 3 3 3 3 3 2 3 3 3 2 2 2 3 3 2 2 2 2 1 1 1 2 3 3 3 3 2 2 3 3 2 1 1
2 3 3 2 2 3 3 3 3 3 3 2 2 2 2 2 2 2 2 3 3 3 3 3 3 2 2 2 3 4 3 3 3 3 4 3 2 2
2 3 2 2 2 2 2 2 3 3 2 2 2 2 2 2 2 2 2 2 3 3 3 3 4 4 5 3 2 1 4 4 4 3 3 4 4 3
2 2 2 2 2 2 2 2 2 2 1 1 2 2 2 2 2 2 2 4 4 3 3 3 4 5 6 6 4 2 1 4 5 5 5 4 3 1
2 2 2 2 2 1 1 1 1 1 2 2 2 2 2 2 3 3 2 1 4 4 4 3 3 4 5 4 4 3 1 2 3 5 7 6 5 4
2 2 1 1 1 1 1 0 0 1 0 1 2 2 2 2 3 3 4 3 3 4 4 3 2 3 4 5 5 5 4 2 3 6 6 5 6 6
1 1 1 1 1 0 0 1 1 0 1 1 2 2 3 3 3 3 3 4 4 4 5 4 4 4 5 5 5 5 6 5 4 3 3 7 9 9
Wind_Direction
273 249 254 250 254 257 256 251 252 262 261 337 41 42 41 61 69 69 72 77 78 75 74 74 74 72 64 59 61 62 57 57 50 351 321 285 245 262
343 319 286 279 263 261 263 266 256 255 270 13 35 43 48 64 81 75 77 89 76 73 72 72 73 71 67 61 61 60 63 71 86 89 85 80 75 42
7 352 345 337 324 290 265 256 253 242 223 250 59 75 69 65 70 72 80 79 78 73 73 72 68 66 64 63 61 60 57 59 68 72 75 77 73 64
31 20 14 21 9 340 356 8 55 204 187 138 95 80 73 76 76 72 72 74 76 78 75 70 67 65 64 64 63 61 61 62 64 65 67 65 64 60
42 36 30 27 20 25 22 33 39 76 91 111 99 75 70 67 77 77 74 66 77 88 85 79 73 71 68 66 62 60 60 61 61 60 58 59 61 60
46 44 39 39 35 37 47 45 48 72 92 102 99 87 84 80 81 83 82 68 60 62 64 74 86 86 78 71 67 64 63 63 63 63 61 60 59 59
58 57 56 54 47 40 43 45 49 65 91 98 99 96 86 78 70 76 87 88 74 49 62 68 82 78 84 82 71 63 64 65 65 65 64 62 62 60
64 64 70 64 66 64 60 54 46 49 58 76 86 83 74 72 72 88 95 94 82 53 39 65 57 65 67 69 67 66 66 67 69 70 68 68 68 67
65 61 61 63 58 71 79 80 65 52 43 48 76 76 83 72 73 91 66 44 56 61 32 65 62 68 76 79 79 72 68 65 66 69 69 68 69 74
65 66 69 63 52 50 72 72 69 60 51 56 65 66 69 61 56 66 86 103 104 85 29 47 63 73 78 93 99 85 81 75 68 66 68 63 60 75
69 61 61 70 41 28 74 79 77 78 80 74 68 73 70 55 22 52 84 101 102 96 55 27 76 98 113 112 121 128 111 103 85 68 60 42 4 212
90 84 67 56 41 26 66 78 79 75 77 89 90 94 89 83 54 21 10 20 47 78 57 342 24 329 116 103 98 131 137 137 133 114 88 41 344 319
92 86 75 55 51 41 46 67 62 57 84 85 84 78 74 68 58 48 26 15 15 38 33 339 346 345 358 55 72 64 35 52 156 154 148 148 332 331
87 87 87 77 68 57 59 46 360 335 81 79 76 71 64 60 59 55 47 43 35 37 19 355 353 348 342 345 10 52 58 11 346 354 13 167 195 210
82 77 84 104 120 99 74 18 339 52 60 64 64 62 61 57 62 87 92 86 77 54 43 13 359 352 341 347 356 4 358 7 0 346 339 332 335 301
117 119 126 99 91 89 114 93 59 46 35 50 54 60 66 74 52 32 33 44 65 85 70 35 16 356 351 360 348 357 356 352 348 355 340 313 307 317
137 146 139 129 117 104 94 76 68 72 56 48 45 48 45 45 43 33 8 356 14 23 40 37 22 350 4 338 337 352 341 341 353 355 304 297 309 310
205 133 120 108 95 88 87 86 74 56 44 43 41 32 29 28 31 23 9 360 6 6 8 5 344 311 240 131 4 333 334 335 333 317 304 314 323 327
190 118 110 99 85 78 76 74 71 62 27 31 34 27 20 19 20 12 1 356 1 359 2 0 350 338 326 338 113 342 329 324 316 317 318 321 321 336
160 119 118 112 101 82 73 68 70 75 50 25 31 20 6 -0 0 356 7 355 344 341 348 356 358 349 337 333 331 323 272 317 324 320 314 303 311 332
141 130 120 118 110 99 76 52 45 50 28 349 28 7 350 342 344 338 351 14 309 324 335 354 15 303 290 294 298 316 352 202 281 305 315 310 309 299
127 123 115 102 107 104 104 34 40 77 39 329 15 348 337 330 329 323 328 326 323 328 327 337 331 300 304 311 313 316 316 303 220 224 247 278 311 321
141 144 139 152 145 180 246 250 287 349 1 344 347 333 330 325 316 316 316 314 319 325 322 322 320 309 310 308 308 312 316 311 301 270 236 201 217 237